Location: Newark
(48.1236°N, 0.7169°W)
Time: 01:27:28
(UTC+00:00)

Envisat - Pass Details

Date: 28 November 2019
Orbit: 764 x 766 km, 98.1° (Epoch: 09 December)

Event Time Altitude Azimuth Distance (km) Brightness Sun altitude
Rises 18:21:43 0° 180° (S) 3,219 6.3 -20.8°
Reaches altitude 10° 18:24:05 10° 185° (S) 2,297 5.6 -21.2°
Maximum altitude 18:28:59 50° 261° (W) 975 3.9 -22.0°
Drops below altitude 10° 18:33:57 10° 337° (NNW) 2,313 5.7 -22.8°
Sets 18:36:20 0° 342° (NNW) 3,244 6.4 -23.2°
